Weatherford, OK

11:38 AM CDT on August 31, 2016 (GMT -0500)
Weatherford

Weather History for KOJA - January, 2013

Change the Weather History Date:

Monday, January 28, 2013

  Actual Average (KJWG) Record (KJWG)
Temperature  
Mean Temperature 62 °F -  
Max Temperature 73 °F 49 °F 74 °F (1986)
Min Temperature 51 °F 26 °F 2 °F (1972)
Degree Days  
Heating Degree Days 3    
Growing Degree Days 12 (Base 50)    
Moisture  
Dew Point 55 °F    
Average Humidity 76    
Maximum Humidity 94    
Minimum Humidity 57    
Precipitation  
Precipitation 0.00 in - - ()
Sea Level Pressure  
Sea Level Pressure 29.80 in    
Wind  
Wind Speed 13 mph (SSW)    
Max Wind Speed 24 mph    
Max Gust Speed 36 mph    
Visibility 10 miles    
Events      
Averages and records for this station are not official NWS values.
T = Trace of Precipitation, MM = Missing Value Source: NWS Daily Summary

Daily Weather History Graph

Daily Weather History Graph

Search for Another Location

Airport or City:

Trip Planner

Search our weather history database for the weather conditions in past years. The results will help you decide how hot, cold, wet, or windy it might be!

Date:

Astronomy

Jan. 28, 2013 Rise Set
Actual Time 7:37 AM CST 5:58 PM CST
Civil Twilight 7:10 AM CST 6:25 PM CST
Nautical Twilight 6:39 AM CST 6:56 PM CST
Astronomical Twilight 6:09 AM CST 7:26 PM CST
Moon 7:48 PM CST (1/28) 8:08 AM CST (1/28)
Length of Visible Light 11h 15m
Length of Day
10h 21m
Full, 98% of the Moon is Illuminated
Jan 28
Full
Feb 3
Last Quarter
Feb 10
New
Feb 17
First Quarter
Feb 25
Full

Hourly Weather History & Observations

Time (CST) Temp. Dew Point Humidity Pressure Visibility Wind Dir Wind Speed Gust Speed Precip Events Conditions
12:15 AM 59.0 °F 53.6 °F 82% 29.84 in 10.0 mi SSW 13.8 mph 18.4 mph N/A   Clear
12:35 AM 59.0 °F 51.8 °F 77% 29.84 in 10.0 mi SSW 11.5 mph 17.3 mph N/A   Clear
12:55 AM 59.0 °F 51.8 °F 77% 29.85 in 10.0 mi SSW 10.4 mph - N/A   Clear
1:15 AM 57.2 °F 51.8 °F 82% 29.85 in 10.0 mi SSW 9.2 mph 17.3 mph N/A   Clear
1:35 AM 55.4 °F 51.8 °F 88% 29.85 in 10.0 mi SSW 8.1 mph - N/A   Clear
1:55 AM 55.4 °F 51.8 °F 88% 29.85 in 10.0 mi SSW 9.2 mph - N/A   Clear
2:15 AM 55.4 °F 51.8 °F 88% 29.85 in 10.0 mi SSW 10.4 mph - N/A   Clear
2:35 AM 55.4 °F 50.0 °F 82% 29.85 in 10.0 mi SSW 12.7 mph - N/A   Clear
2:55 AM 55.4 °F 50.0 °F 82% 29.85 in 10.0 mi SSW 12.7 mph - N/A   Clear
3:15 AM 55.4 °F 50.0 °F 82% 29.86 in 10.0 mi SSW 10.4 mph - N/A   Clear
3:35 AM 55.4 °F 50.0 °F 82% 29.86 in 10.0 mi SSW 10.4 mph - N/A   Clear
3:55 AM 55.4 °F 50.0 °F 82% 29.86 in 10.0 mi SSW 12.7 mph - N/A   Clear
4:15 AM 53.6 °F 48.2 °F 82% 29.86 in 10.0 mi SSW 10.4 mph - N/A   Clear
4:35 AM 53.6 °F 46.4 °F 77% 29.86 in 10.0 mi SSW 10.4 mph - N/A   Clear
4:55 AM 53.6 °F 46.4 °F 77% 29.87 in 10.0 mi SSW 9.2 mph - N/A   Clear
5:15 AM 53.6 °F 46.4 °F 77% 29.86 in 10.0 mi SSW 8.1 mph - N/A   Clear
5:55 AM 51.8 °F 48.2 °F 88% 29.87 in 10.0 mi SSW 10.4 mph - N/A   Clear
6:15 AM 51.8 °F 48.2 °F 88% 29.87 in 10.0 mi SSW 11.5 mph - N/A   Clear
6:35 AM 51.8 °F 50.0 °F 94% 29.87 in 10.0 mi SSW 10.4 mph - N/A   Clear
6:55 AM 51.8 °F 50.0 °F 94% 29.88 in 10.0 mi SSW 11.5 mph - N/A   Clear
7:15 AM 51.8 °F 50.0 °F 94% 29.89 in 10.0 mi SSW 9.2 mph - N/A   Clear
7:35 AM 51.8 °F 50.0 °F 94% 29.89 in 10.0 mi SSW 9.2 mph - N/A   Clear
7:55 AM 51.8 °F 50.0 °F 94% 29.89 in 10.0 mi SSW 8.1 mph - N/A   Clear
8:15 AM 51.8 °F 50.0 °F 94% 29.90 in 10.0 mi SSW 10.4 mph - N/A   Clear
8:35 AM 53.6 °F 51.8 °F 94% 29.90 in 10.0 mi SSW 12.7 mph 18.4 mph N/A   Clear
8:55 AM 55.4 °F 53.6 °F 94% 29.90 in 10.0 mi SSW 8.1 mph - N/A   Clear
9:15 AM 57.2 °F 53.6 °F 88% 29.90 in 10.0 mi SSW 11.5 mph 16.1 mph N/A   Clear
9:35 AM 59.0 °F 53.6 °F 82% 29.89 in 10.0 mi SSW 13.8 mph 19.6 mph N/A   Clear
9:55 AM 59.0 °F 55.4 °F 88% 29.89 in 10.0 mi SSW 12.7 mph 19.6 mph N/A   Clear
10:15 AM 60.8 °F 55.4 °F 82% 29.89 in 10.0 mi SSW 11.5 mph 18.4 mph N/A   Clear
10:35 AM 62.6 °F 55.4 °F 77% 29.88 in 10.0 mi SSW 11.5 mph 21.9 mph N/A   Clear
10:55 AM 62.6 °F 57.2 °F 82% 29.88 in 10.0 mi SSW 15.0 mph 23.0 mph N/A   Clear
11:15 AM 66.2 °F 59.0 °F 78% 29.87 in 10.0 mi SSW 12.7 mph 21.9 mph N/A   Clear
11:35 AM 68.0 °F 59.0 °F 73% 29.87 in 10.0 mi SSW 16.1 mph 23.0 mph N/A   Clear
11:55 AM 68.0 °F 59.0 °F 73% 29.85 in 10.0 mi South 19.6 mph 26.5 mph N/A   Mostly Cloudy
12:15 PM 69.8 °F 59.0 °F 68% 29.84 in 10.0 mi South 18.4 mph 27.6 mph N/A   Mostly Cloudy
12:35 PM 69.8 °F 59.0 °F 68% 29.83 in 10.0 mi South 23.0 mph 31.1 mph N/A   Overcast
12:55 PM 68.0 °F 59.0 °F 73% 29.81 in 10.0 mi South 19.6 mph 26.5 mph N/A   Overcast
1:15 PM 68.0 °F 59.0 °F 73% 29.80 in 10.0 mi South 19.6 mph 28.8 mph N/A   Overcast
1:35 PM 69.8 °F 59.0 °F 68% 29.79 in 10.0 mi South 17.3 mph 28.8 mph N/A   Overcast
1:55 PM 69.8 °F 59.0 °F 68% 29.78 in 10.0 mi South 19.6 mph 27.6 mph N/A   Overcast
2:15 PM 71.6 °F 59.0 °F 64% 29.77 in 10.0 mi SSW 24.2 mph 35.7 mph N/A   Overcast
2:35 PM 71.6 °F 59.0 °F 64% 29.76 in 10.0 mi SSW 21.9 mph 27.6 mph N/A   Scattered Clouds
2:55 PM 71.6 °F 59.0 °F 64% 29.75 in 10.0 mi SSW 17.3 mph 29.9 mph N/A   Scattered Clouds
3:15 PM 71.6 °F 59.0 °F 64% 29.75 in 10.0 mi SSW 20.7 mph 27.6 mph N/A   Scattered Clouds
3:35 PM 71.6 °F 59.0 °F 64% 29.74 in 10.0 mi South 20.7 mph 28.8 mph N/A   Scattered Clouds
3:55 PM 73.4 °F 57.2 °F 57% 29.74 in 10.0 mi SSW 20.7 mph 28.8 mph N/A   Clear
4:15 PM 71.6 °F 57.2 °F 60% 29.73 in 10.0 mi South 23.0 mph 28.8 mph N/A   Scattered Clouds
4:35 PM 71.6 °F 59.0 °F 64% 29.72 in 10.0 mi South 19.6 mph 24.2 mph N/A   Scattered Clouds
4:55 PM 71.6 °F 57.2 °F 60% 29.72 in 10.0 mi South 15.0 mph 25.3 mph N/A   Scattered Clouds
5:15 PM 71.6 °F 57.2 °F 60% 29.72 in 10.0 mi South 16.1 mph 19.6 mph N/A   Clear
5:35 PM 71.6 °F 55.4 °F 57% 29.71 in 10.0 mi South 11.5 mph - N/A   Clear
5:55 PM 69.8 °F 57.2 °F 64% 29.71 in 10.0 mi South 11.5 mph - N/A   Clear
6:15 PM 69.8 °F 55.4 °F 60% 29.71 in 10.0 mi South 11.5 mph - N/A   Clear
6:35 PM 69.8 °F 55.4 °F 60% 29.71 in 10.0 mi South 9.2 mph 16.1 mph N/A   Clear
6:55 PM 68.0 °F 55.4 °F 64% 29.71 in 10.0 mi South 10.4 mph - N/A   Clear
7:15 PM 68.0 °F 55.4 °F 64% 29.71 in 10.0 mi South 11.5 mph - N/A   Scattered Clouds
7:35 PM 68.0 °F 53.6 °F 60% 29.72 in 10.0 mi South 10.4 mph - N/A   Scattered Clouds
7:55 PM 66.2 °F 55.4 °F 68% 29.72 in 10.0 mi South 15.0 mph - N/A   Mostly Cloudy
8:15 PM 66.2 °F 59.0 °F 78% 29.72 in 10.0 mi South 16.1 mph 20.7 mph N/A   Mostly Cloudy
8:35 PM 66.2 °F 59.0 °F 78% 29.72 in 10.0 mi South 12.7 mph - N/A   Scattered Clouds
8:55 PM 64.4 °F 59.0 °F 83% 29.73 in 10.0 mi South 8.1 mph - N/A   Clear
9:15 PM 64.4 °F 59.0 °F 83% 29.73 in 10.0 mi South 9.2 mph - N/A   Clear
9:35 PM 64.4 °F 59.0 °F 83% 29.72 in 10.0 mi South 9.2 mph - N/A   Clear
9:55 PM 64.4 °F 57.2 °F 77% 29.73 in 10.0 mi South 10.4 mph 16.1 mph N/A   Clear
10:15 PM 64.4 °F 55.4 °F 73% 29.72 in 10.0 mi SSW 10.4 mph 16.1 mph N/A   Clear
10:35 PM 64.4 °F 55.4 °F 73% 29.71 in 10.0 mi South 11.5 mph - N/A   Clear
10:55 PM 64.4 °F 55.4 °F 73% 29.73 in 10.0 mi SSW 10.4 mph - N/A   Clear
11:15 PM 64.4 °F 55.4 °F 73% 29.73 in 10.0 mi South 11.5 mph - N/A   Clear
11:35 PM 64.4 °F 55.4 °F 73% 29.73 in 10.0 mi South 10.4 mph - N/A   Clear
11:55 PM 64.4 °F 55.4 °F 73% 29.73 in 10.0 mi SSW 8.1 mph - N/A   Clear